Weather History for Volkel, Netherlands

Change the Weather History Date:

Wednesday, April 10, 2013

  Actual Average Record
Temperature  
Mean Temperature 45 °F -  
Max Temperature 53 °F 59 °F 75 °F (2009)
Min Temperature 37 °F 41 °F 28 °F (2008)
Degree Days  
Heating Degree Days 20    
Moisture  
Dew Point 42 °F    
Average Humidity 85    
Maximum Humidity 100    
Minimum Humidity 62    
Precipitation  
Precipitation 0.00 in - - ()
Sea Level Pressure  
Sea Level Pressure 29.63 in    
Wind  
Wind Speed 7 mph ()    
Max Wind Speed 15 mph    
Max Gust Speed -    
Visibility 4.2 miles    
Events Rain    
Averages and records for this station are not official NWS values.
T = Trace of Precipitation, MM = Missing Value Source: Averaged Metar Reports

Daily Weather History Graph

Daily Weather History Graph

Search for Another Location

Airport:

Trip Planner

Search our weather history database for the weather conditions in past years. The results will help you decide how hot, cold, wet, or windy it might be!

Date:

Astronomy

Apr. 10, 2013 Rise Set
Actual Time 6:52 AM CEST 8:25 PM CEST
Civil Twilight 6:17 AM CEST 9:01 PM CEST
Nautical Twilight 5:34 AM CEST 9:44 PM CEST
Astronomical Twilight 4:47 AM CEST 10:31 PM CEST
Moon 6:37 AM CEST (4/10) 8:51 PM CEST (4/10)
Length of Visible Light 14h 43m
Length of Day
13h 33m
New Moon, 0% of the Moon is Illuminated
Apr 10
New Moon
Apr 18
First Quarter
Apr 25
Full
May 2
Last Quarter
May 10
New

Hourly Weather History & Observations

Time (CEST) Temp. Windchill Dew Point Humidity Pressure Visibility Wind Dir Wind Speed Gust Speed Precip Events Conditions
12:25 AM 44.6 °F - 42.8 °F 93% 29.50 in 6.2 mi SSE 1.2 mph - N/A   Mostly Cloudy
12:55 AM 42.8 °F 41.1 °F 42.8 °F 100% 29.50 in 6.2 mi SSE 3.5 mph - N/A   Partly Cloudy
1:25 AM 42.8 °F 40.1 °F 41.0 °F 93% 29.50 in 6.2 mi South 4.6 mph - N/A   Mostly Cloudy
1:55 AM 42.8 °F 40.1 °F 41.0 °F 93% 29.50 in 6.2 mi South 4.6 mph - N/A   Mostly Cloudy
2:25 AM 42.8 °F 39.3 °F 41.0 °F 93% 29.50 in 6.2 mi SSW 5.8 mph - N/A   Overcast
2:55 AM 42.8 °F 38.6 °F 42.8 °F 100% 29.50 in 6.2 mi SSW 6.9 mph - N/A   Overcast
3:25 AM 42.8 °F 39.3 °F 42.8 °F 100% 29.53 in 6.2 mi SSW 5.8 mph - N/A   Mostly Cloudy
3:55 AM 42.8 °F 39.3 °F 42.8 °F 100% 29.53 in 5.6 mi SW 5.8 mph - N/A   Overcast
4:21 AM 42.8 °F 40.1 °F 41.0 °F 93% 29.53 in 4.3 mi SW 4.6 mph - N/A   Overcast
4:25 AM 42.8 °F 40.1 °F 41.0 °F 93% 29.53 in 4.3 mi SW 4.6 mph - N/A   Overcast
4:55 AM 42.8 °F - 41.0 °F 93% 29.53 in 3.7 mi SSW 2.3 mph - N/A   Overcast
4:57 AM 42.8 °F - 42.8 °F 100% 29.53 in - South 2.3 mph - N/A   Overcast
5:03 AM 42.8 °F 41.1 °F 42.8 °F 100% 29.53 in 3.7 mi SSW 3.5 mph - N/A   Overcast
5:16 AM 42.8 °F 41.1 °F 42.8 °F 100% 29.53 in 3.7 mi SSW 3.5 mph - N/A   Overcast
5:25 AM 42.8 °F 41.1 °F 42.8 °F 100% 29.53 in 5.0 mi SSW 3.5 mph - N/A Rain Light Rain
5:29 AM 42.8 °F 41.1 °F 42.8 °F 100% 29.53 in 4.3 mi SSW 3.5 mph - N/A Rain Light Rain
5:33 AM 44.6 °F 42.2 °F 42.8 °F 93% 29.53 in 5.0 mi SSW 4.6 mph - N/A Rain Rain
5:37 AM 44.6 °F 42.2 °F 42.8 °F 93% 29.53 in 5.0 mi SSW 4.6 mph - N/A   Light Drizzle
5:41 AM 44.6 °F 42.2 °F 42.8 °F 93% 29.53 in 5.0 mi SSW 4.6 mph - N/A   Light Drizzle
5:55 AM 44.6 °F 42.2 °F 42.8 °F 93% 29.53 in 4.3 mi SSW 4.6 mph - N/A   Light Drizzle
6:11 AM 44.6 °F 42.2 °F 42.8 °F 93% 29.53 in - SSW 4.6 mph - N/A Rain Light Rain
6:25 AM 44.6 °F 41.4 °F 42.8 °F 93% 29.53 in 3.1 mi SSW 5.8 mph - N/A Rain Light Rain
6:55 AM 44.6 °F 40.7 °F 44.6 °F 100% 29.56 in 3.1 mi SSW 6.9 mph - N/A Rain Light Rain
7:08 AM 44.6 °F 40.7 °F 44.6 °F 100% 29.56 in 3.1 mi SSW 6.9 mph - N/A   Light Drizzle
7:12 AM 44.6 °F 40.7 °F 44.6 °F 100% 29.56 in 3.1 mi SSW 6.9 mph - N/A   Drizzle
7:25 AM 44.6 °F 41.4 °F 44.6 °F 100% 29.56 in - SSW 5.8 mph - N/A Rain Light Rain
7:35 AM 44.6 °F 41.4 °F 44.6 °F 100% 29.56 in - SSW 5.8 mph - N/A Rain Light Rain
7:51 AM 44.6 °F 40.7 °F 42.8 °F 93% 29.56 in - SW 6.9 mph - N/A   Light Drizzle
7:55 AM 44.6 °F 40.7 °F 42.8 °F 93% 29.56 in - SW 6.9 mph - N/A   Light Drizzle
8:07 AM 44.6 °F 41.4 °F 44.6 °F 100% 29.59 in - SW 5.8 mph - N/A   Mostly Cloudy
8:14 AM 44.6 °F 41.4 °F 44.6 °F 100% 29.59 in - SW 5.8 mph - N/A   Overcast
8:18 AM 44.6 °F 40.7 °F 44.6 °F 100% 29.59 in - SW 6.9 mph - N/A   Mostly Cloudy
8:25 AM 44.6 °F 40.7 °F 44.6 °F 100% 29.59 in - SW 6.9 mph - N/A   Mostly Cloudy
8:29 AM 44.6 °F 40.7 °F 44.6 °F 100% 29.59 in - SW 6.9 mph - N/A Rain Light Rain
8:30 AM 44.6 °F 40.7 °F 44.6 °F 100% 29.59 in - SW 6.9 mph - N/A Rain Drizzle
8:33 AM 44.6 °F 40.7 °F 44.6 °F 100% 29.59 in - SW 6.9 mph - N/A Rain Drizzle
8:49 AM 44.6 °F 40.7 °F 44.6 °F 100% 29.59 in 2.5 mi SW 6.9 mph - N/A Rain Light Rain
8:55 AM 44.6 °F 40.7 °F 44.6 °F 100% 29.59 in - SW 6.9 mph - N/A   Light Drizzle
8:59 AM 44.6 °F 41.4 °F 44.6 °F 100% 29.59 in - SSW 5.8 mph - N/A   Overcast
9:00 AM 44.6 °F 40.7 °F 44.6 °F 100% 29.59 in 2.2 mi SSW 6.9 mph - N/A   Mostly Cloudy
9:03 AM 44.6 °F 40.7 °F 44.6 °F 100% 29.59 in - SSW 6.9 mph - N/A   Mostly Cloudy
9:25 AM 46.4 °F 42.4 °F 44.6 °F 93% 29.59 in - SW 8.1 mph - N/A   Overcast
9:55 AM 46.4 °F 41.5 °F 46.4 °F 100% 29.59 in - SW 10.4 mph - N/A   Overcast
10:14 AM 46.4 °F 41.5 °F 44.6 °F 93% 29.59 in - SW 10.4 mph - N/A   Overcast
10:20 AM 46.4 °F 41.5 °F 46.4 °F 100% 29.59 in - SW 10.4 mph - N/A   Overcast
10:25 AM 48.2 °F - 46.4 °F 93% 29.59 in 2.2 mi SW 10.4 mph - N/A   Overcast
10:30 AM 48.2 °F - 44.6 °F 87% 29.59 in - SW 10.4 mph - N/A   Overcast
10:31 AM 48.2 °F - 46.4 °F 93% 29.59 in - SW 10.4 mph - N/A   Overcast
10:38 AM 48.2 °F - 46.4 °F 93% 29.59 in - SW 11.5 mph - N/A   Overcast
10:43 AM 48.2 °F - 46.4 °F 93% 29.62 in - SW 10.4 mph - N/A Rain Light Rain
10:48 AM 48.2 °F - 44.6 °F 87% 29.62 in - SW 11.5 mph - N/A Rain Light Rain
10:55 AM 48.2 °F - 46.4 °F 93% 29.62 in - WSW 11.5 mph - N/A   Mostly Cloudy
11:08 AM 48.2 °F - 44.6 °F 87% 29.62 in 2.5 mi WSW 10.4 mph - N/A   Mostly Cloudy
11:25 AM 48.2 °F - 44.6 °F 87% 29.62 in - SW 12.7 mph - N/A   Mostly Cloudy
11:29 AM 48.2 °F - 44.6 °F 87% 29.62 in 3.1 mi WSW 11.5 mph - N/A   Mostly Cloudy
11:35 AM 48.2 °F - 44.6 °F 87% 29.62 in - WSW 10.4 mph - N/A   Mostly Cloudy
11:36 AM 48.2 °F - 44.6 °F 87% 29.62 in - WSW 10.4 mph - N/A   Mostly Cloudy
11:46 AM 48.2 °F - 44.6 °F 87% 29.62 in - WSW 8.1 mph - N/A   Mostly Cloudy
11:50 AM 48.2 °F - 44.6 °F 87% 29.62 in - WSW 8.1 mph - N/A   Mostly Cloudy
11:55 AM 48.2 °F - 44.6 °F 87% 29.62 in 3.1 mi WSW 8.1 mph - N/A   Mostly Cloudy
11:59 AM 48.2 °F - 44.6 °F 87% 29.62 in 3.1 mi WSW 9.2 mph - N/A   Mostly Cloudy
12:08 PM 50.0 °F - 44.6 °F 82% 29.62 in 3.1 mi WSW 10.4 mph - N/A   Overcast
12:18 PM 48.2 °F - 44.6 °F 87% 29.65 in 3.7 mi WSW 10.4 mph - N/A   Overcast
12:25 PM 50.0 °F - 44.6 °F 82% 29.65 in 3.7 mi WSW 10.4 mph - N/A   Mostly Cloudy
12:32 PM 50.0 °F - 42.8 °F 76% 29.65 in 4.3 mi WSW 9.2 mph - N/A   Overcast
12:45 PM 50.0 °F - 44.6 °F 82% 29.65 in 4.3 mi WSW 9.2 mph - N/A   Mostly Cloudy
12:55 PM 51.8 °F - 44.6 °F 76% 29.65 in 5.0 mi West 9.2 mph - N/A   Mostly Cloudy
1:03 PM 51.8 °F - 44.6 °F 76% 29.65 in 5.0 mi West 9.2 mph - N/A   Haze
1:08 PM 51.8 °F - 44.6 °F 76% 29.65 in 5.0 mi West 9.2 mph - N/A   Haze
1:13 PM 51.8 °F - 44.6 °F 76% 29.65 in 5.0 mi WSW 9.2 mph - N/A   Haze
1:17 PM 50.0 °F - 41.0 °F 71% 29.65 in 6.2 mi WSW 10.4 mph - N/A   Mostly Cloudy
1:21 PM 50.0 °F - 41.0 °F 71% 29.65 in 6.2 mi WSW 10.4 mph - N/A   Mostly Cloudy
1:25 PM 50.0 °F - 41.0 °F 71% 29.65 in 5.6 mi West 10.4 mph - N/A   Haze
1:50 PM 51.8 °F - 44.6 °F 76% 29.65 in 3.7 mi WSW 10.4 mph - N/A   Haze
1:55 PM 51.8 °F - 42.8 °F 71% 29.65 in 3.7 mi WSW 10.4 mph - N/A   Haze
2:04 PM 51.8 °F - 41.0 °F 67% 29.65 in 5.0 mi West 10.4 mph - N/A   Haze
2:05 PM 51.8 °F - 41.0 °F 67% 29.65 in 5.6 mi West 11.5 mph - N/A   Haze
2:19 PM 53.6 °F - 42.8 °F 67% 29.65 in 5.6 mi West 13.8 mph - N/A   Haze
2:25 PM 53.6 °F - 42.8 °F 67% 29.65 in 4.3 mi West 13.8 mph - N/A   Haze
2:27 PM 51.8 °F - 41.0 °F 67% 29.65 in 5.0 mi West 13.8 mph - N/A   Haze
2:31 PM 51.8 °F - 41.0 °F 67% 29.65 in 5.6 mi West 13.8 mph - N/A   Haze
2:38 PM 53.6 °F - 41.0 °F 62% 29.65 in 6.2 mi West 13.8 mph - N/A   Scattered Clouds
2:51 PM 51.8 °F - 39.2 °F 62% 29.68 in 5.6 mi West 12.7 mph - N/A   Haze
2:55 PM 51.8 °F - 41.0 °F 67% 29.68 in 5.6 mi West 12.7 mph - N/A   Haze
3:00 PM 53.6 °F - 41.0 °F 62% 29.68 in 5.6 mi West 12.7 mph - N/A   Haze
3:04 PM 51.8 °F - 41.0 °F 67% 29.68 in 6.2 mi WSW 13.8 mph - N/A   Scattered Clouds
3:19 PM 50.0 °F - 41.0 °F 71% 29.68 in 4.3 mi West 13.8 mph - N/A   Haze
3:25 PM 50.0 °F - 41.0 °F 71% 29.68 in 4.3 mi West 12.7 mph - N/A Rain Light Rain
3:55 PM 50.0 °F - 41.0 °F 71% 29.68 in 3.7 mi West 11.5 mph - N/A   Haze
3:59 PM 50.0 °F - 41.0 °F 71% 29.68 in 3.7 mi West 11.5 mph - N/A   Haze
4:19 PM 50.0 °F - 41.0 °F 71% 29.68 in - West 10.4 mph - N/A   Haze
4:25 PM 50.0 °F - 41.0 °F 71% 29.68 in 3.1 mi West 11.5 mph - N/A   Haze
4:28 PM 51.8 °F - 42.8 °F 71% 29.68 in - West 12.7 mph - N/A   Haze
4:34 PM 50.0 °F - 41.0 °F 71% 29.68 in 3.1 mi West 12.7 mph - N/A   Haze
4:39 PM 50.0 °F - 41.0 °F 71% 29.71 in - West 15.0 mph - N/A   Haze
4:43 PM 51.8 °F - 41.0 °F 67% 29.71 in 3.1 mi West 12.7 mph - N/A   Haze
4:49 PM 51.8 °F - 41.0 °F 67% 29.71 in - West 13.8 mph - N/A   Haze
4:55 PM 50.0 °F - 39.2 °F 66% 29.71 in 3.1 mi West 15.0 mph - N/A   Haze
4:58 PM 50.0 °F - 41.0 °F 71% 29.71 in - West 15.0 mph - N/A   Haze
5:03 PM 50.0 °F - 39.2 °F 66% 29.71 in 3.1 mi West 13.8 mph - N/A   Haze
5:07 PM 50.0 °F - 39.2 °F 66% 29.71 in - West 13.8 mph - N/A   Haze
5:08 PM 50.0 °F - 39.2 °F 66% 29.71 in 3.1 mi West 15.0 mph - N/A   Haze
5:25 PM 50.0 °F - 37.4 °F 62% 29.71 in 3.1 mi West 11.5 mph - N/A   Haze
5:55 PM 48.2 °F - 39.2 °F 71% 29.71 in 3.1 mi West 11.5 mph - N/A   Haze
6:25 PM 48.2 °F - 39.2 °F 71% 29.71 in 3.1 mi WSW 10.4 mph - N/A   Haze
6:55 PM 48.2 °F - 37.4 °F 66% 29.74 in 3.1 mi West 8.1 mph - N/A   Haze
7:25 PM 46.4 °F 41.9 °F 37.4 °F 71% 29.74 in 3.7 mi West 9.2 mph - N/A   Haze
7:55 PM 46.4 °F 44.3 °F 35.6 °F 66% 29.71 in 3.7 mi West 4.6 mph - N/A   Haze
8:25 PM 44.6 °F - 35.6 °F 71% 29.71 in 3.1 mi West 2.3 mph - N/A   Haze
8:55 PM 41.0 °F - 35.6 °F 81% 29.71 in 3.1 mi NW 2.3 mph - N/A   Haze
9:07 PM 39.2 °F - 35.6 °F 87% 29.71 in - NNW 2.3 mph - N/A   Partly Cloudy
9:12 PM 39.2 °F - 35.6 °F 87% 29.71 in 3.1 mi NNW 2.3 mph - N/A   Partly Cloudy
9:18 PM 39.2 °F - 35.6 °F 87% 29.71 in - NW 1.2 mph - N/A   Scattered Clouds
9:25 PM 39.2 °F - 35.6 °F 87% 29.71 in - WSW 1.2 mph - N/A   Mostly Cloudy
9:55 PM 39.2 °F - 35.6 °F 87% 29.71 in 2.5 mi NE 2.3 mph - N/A   Overcast
10:12 PM 37.4 °F - 35.6 °F 93% 29.71 in - NNE 2.3 mph - N/A   Overcast
10:16 PM 37.4 °F - 35.6 °F 93% 29.71 in - NE 2.3 mph - N/A   Overcast
10:25 PM 39.2 °F - 37.4 °F 93% 29.71 in 2.5 mi ENE 2.3 mph - N/A   Overcast
10:38 PM 39.2 °F - 37.4 °F 93% 29.71 in - East 2.3 mph - N/A   Overcast
10:55 PM 39.2 °F - 37.4 °F 93% 29.71 in - East 2.3 mph - N/A   Mostly Cloudy
11:02 PM 39.2 °F - 37.4 °F 93% 29.71 in - East 2.3 mph - N/A   Mostly Cloudy
11:09 PM 39.2 °F - 37.4 °F 93% 29.71 in 2.2 mi East 2.3 mph - N/A   Mostly Cloudy
11:13 PM 39.2 °F 37.0 °F 37.4 °F 93% 29.71 in - East 3.5 mph - N/A   Mostly Cloudy
11:17 PM 39.2 °F 37.0 °F 37.4 °F 93% 29.71 in - East 3.5 mph - N/A   Scattered Clouds
11:25 PM 39.2 °F 37.0 °F 37.4 °F 93% 29.71 in - East 3.5 mph - N/A   Partly Cloudy
11:30 PM 39.2 °F 37.0 °F 37.4 °F 93% 29.71 in - East 3.5 mph - N/A   Partly Cloudy
11:35 PM 39.2 °F 35.9 °F 37.4 °F 93% 29.71 in 2.2 mi East 4.6 mph - N/A   Scattered Clouds
11:41 PM 41.0 °F 38.0 °F 37.4 °F 87% 29.71 in - East 4.6 mph - N/A   Partly Cloudy
11:46 PM 41.0 °F 38.0 °F 37.4 °F 87% 29.68 in - East 4.6 mph - N/A   Mist
11:50 PM 41.0 °F 38.0 °F 37.4 °F 87% 29.68 in - East 4.6 mph - N/A   Partly Cloudy
11:55 PM 41.0 °F 38.0 °F 37.4 °F 87% 29.68 in - East 4.6 mph - N/A   Partly Cloudy